Mattoon, IL

8:09 AM CDT on October 23, 2019 (GMT -0500)
Coles County Memorial

Weather History for KMTO - May, 2019

Change the Weather History Date:

Wednesday, May 29, 2019

  Actual Average Record
Temperature  
Mean Temperature 74 °F 67 °F  
Max Temperature 85 °F 77 °F 92 °F (1969)
Min Temperature 62 °F 57 °F 39 °F (1965)
Degree Days  
Heating Degree Days 0 2  
Month to date heating degree days 130 125  
Since 1 July heating degree days 5517 5387  
Cooling Degree Days 9 4  
Month to date cooling degree days 109 67  
Year to date cooling degree days 114 81  
Growing Degree Days 22 (Base 50)    
Moisture  
Dew Point 64 °F    
Average Humidity 76    
Maximum Humidity 93    
Minimum Humidity 58    
Precipitation  
Precipitation 0.16 in 0.10 in 1.35 in (1974)
Month to date precipitation 2.60 4.14  
Year to date precipitation 11.62 14.12  
Sea Level Pressure  
Sea Level Pressure 29.74 in    
Wind  
Wind Speed 9 mph (SE)    
Max Wind Speed 29 mph    
Max Gust Speed 34 mph    
Visibility 9 miles    
Events Rain , Thunderstorm    
T = Trace of Precipitation, MM = Missing Value Source: NWS Daily Summary

Daily Weather History Graph

Daily Weather History Graph

Search for Another Location

Airport or City:

Astronomy

May. 29, 2019 Rise Set
Actual Time 5:29 AM CDT 8:12 PM CDT
Civil Twilight 4:57 AM CDT 8:43 PM CDT
Nautical Twilight 4:18 AM CDT 9:23 PM CDT
Astronomical Twilight 3:33 AM CDT 10:08 PM CDT
Moon 3:06 AM CDT (5/29) 3:21 PM CDT (5/29)
Length of Visible Light 15h 45m
Length of Day
14h 42m
Waning Crescent, 23% of the Moon is Illuminated
May 29
Waning Crescent
Jun 3
New
Jun 10
First Quarter
Jun 17
Full
Jun 25
Last Quarter

Hourly Weather History & Observations

Time (CDT) Temp. Heat Index Dew Point Humidity Pressure Visibility Wind Dir Wind Speed Gust Speed Precip Events Conditions
12:53 AM 73.0 °F - 64.0 °F 73% 29.73 in 9.0 mi North 12.7 mph 18.4 mph N/A   Overcast
1:13 AM 66.0 °F - 61.0 °F 84% 29.75 in 7.0 mi NNE 15.0 mph 21.9 mph N/A   Overcast
1:53 AM 63.0 °F - 59.0 °F 87% 29.74 in 7.0 mi NNE 6.9 mph - 0.00 in Rain Light Rain
2:53 AM 63.0 °F - 59.0 °F 87% 29.75 in 8.0 mi North 12.7 mph 20.7 mph 0.00 in Rain , Thunderstorm Light Rain
3:01 AM 63.0 °F - 59.0 °F 87% 29.77 in 10.0 mi North 9.2 mph 21.9 mph 0.00 in Thunderstorm Overcast
3:20 AM 63.0 °F - 59.0 °F 87% 29.76 in 8.0 mi NE 12.7 mph - 0.00 in Rain , Thunderstorm Light Thunderstorms and Rain
3:35 AM 63.0 °F - 60.1 °F 90% 29.75 in 5.0 mi ENE 11.5 mph - 0.03 in Rain Light Rain
3:53 AM 63.0 °F - 60.1 °F 90% 29.73 in 10.0 mi East 6.9 mph - 0.03 in Rain Light Rain
4:18 AM 64.0 °F - 61.0 °F 90% 29.76 in 10.0 mi Variable 3.5 mph - 0.00 in Rain , Thunderstorm Light Rain
4:33 AM 63.0 °F - 61.0 °F 93% 29.75 in 6.0 mi NE 8.1 mph - 0.03 in Rain Rain
4:53 AM 63.0 °F - 61.0 °F 93% 29.73 in 7.0 mi East 6.9 mph - 0.04 in Rain Light Rain
5:53 AM 63.0 °F - 61.0 °F 93% 29.74 in 10.0 mi NE 6.9 mph - 0.00 in   Mostly Cloudy
6:53 AM 64.9 °F - 61.0 °F 87% 29.75 in 10.0 mi East 6.9 mph - N/A   Overcast
7:53 AM 66.0 °F - 62.1 °F 87% 29.75 in 10.0 mi SSE 8.1 mph - N/A   Partly Cloudy
8:53 AM 69.1 °F - 62.1 °F 78% 29.73 in 10.0 mi SE 10.4 mph - N/A   Clear
9:53 AM 71.1 °F - 63.0 °F 75% 29.72 in 10.0 mi SSE 10.4 mph - N/A   Partly Cloudy
10:53 AM 72.0 °F - 64.9 °F 78% 29.73 in 10.0 mi South 11.5 mph 19.6 mph N/A   Clear
11:53 AM 75.9 °F - 68.0 °F 76% 29.73 in 10.0 mi South 13.8 mph 20.7 mph N/A   Clear
12:53 PM 79.0 °F - 66.9 °F 66% 29.73 in 10.0 mi SW 11.5 mph 24.2 mph N/A   Clear
1:53 PM 80.1 °F 82.3 °F 66.9 °F 64% 29.74 in 10.0 mi WSW 8.1 mph - N/A   Mostly Cloudy
2:53 PM 82.9 °F 85.4 °F 66.9 °F 58% 29.73 in 10.0 mi WNW 10.4 mph - N/A   Partly Cloudy
3:53 PM 82.9 °F 85.0 °F 66.0 °F 56% 29.73 in 10.0 mi Variable 6.9 mph - N/A   Scattered Clouds
4:53 PM 82.9 °F 85.0 °F 66.0 °F 56% 29.70 in 10.0 mi WNW 12.7 mph 18.4 mph N/A   Scattered Clouds
5:24 PM 81.0 °F 83.3 °F 66.9 °F 62% 29.72 in 10.0 mi NW 8.1 mph - N/A Thunderstorm Clear
5:50 PM 82.4 °F 85.4 °F 68.0 °F 62% 29.72 in 10.0 mi NW 5.8 mph - N/A   Scattered Clouds
5:53 PM 82.9 °F 85.8 °F 68.0 °F 60% 29.71 in 10.0 mi NNW 6.9 mph - N/A   Mostly Cloudy
6:16 PM 79.0 °F - 66.9 °F 66% 29.72 in 10.0 mi WSW 6.9 mph - N/A Thunderstorm Mostly Cloudy
6:39 PM 75.0 °F - 66.0 °F 73% 29.72 in 2.5 mi West 12.7 mph 28.8 mph 0.07 in Rain , Thunderstorm Heavy Thunderstorms and Rain
6:53 PM 73.0 °F - 66.9 °F 81% 29.71 in 9.0 mi Variable 3.5 mph - 0.09 in Rain , Thunderstorm Light Thunderstorms and Rain
7:12 PM 71.1 °F - 69.1 °F 93% 29.73 in 7.0 mi South 5.8 mph - 0.00 in Thunderstorm Scattered Clouds
7:53 PM 69.1 °F - 66.0 °F 90% 29.77 in 10.0 mi SSE 16.1 mph - 0.00 in Rain Light Rain
8:53 PM 66.9 °F - 63.0 °F 87% 29.81 in 8.0 mi SSE 12.7 mph 18.4 mph 0.00 in Rain Light Rain
9:53 PM 66.0 °F - 63.0 °F 90% 29.82 in 10.0 mi SSW 4.6 mph - 0.00 in   Overcast
10:53 PM 66.0 °F - 63.0 °F 90% 29.83 in 10.0 mi South 5.8 mph - N/A   Overcast
11:53 PM 64.9 °F - 62.1 °F 90% 29.80 in 10.0 mi SSE 8.1 mph - N/A   Mostly Cloudy